DELTA 1 DEB, 10201

Orbit data source: Space-Track

DELTA 1 DEB, 10201 is space debris in LEO originally from a launch on Thu, 14 Jul 1977 UTC launched from the Air Force Eastern Test Range (AFETR). Debris objects in space refer to the collection of defunct objects orbiting the Earth. Examples of debris include non-operational satellites, rocket bodies, and fragments generated from explosions, collisions, or faulty payload assembly.

Loading next visibility...
Identifier
10201, 1977-065AE
Orbit
LEO
Country
Flag of USUS
Related business
Manufacturer
Unknown
Mission
Spacecraft
Bus & Motor
Unknown
Mass
Unknown
Launch date (UTC)
1977-07-14 (49 years ago)
Launch vehicle
Unknown
Launch site
Air Force Eastern Test Range (AFETR)
Object type
Payload
Rocket body
Debris
Shape & HBR
Unknown shape, 0.2 m
Radar Cross Section
Medium (>0.1 m² and <1 m²)

Expand to show TLE details & history
Last TLE update: 6 hours ago

TLE from 6 hours ago
0 DELTA 1 DEB
1 10201U 77065AE  26263.17251615  .00000815  00000-0  12891-3 0  9994
2 10201  29.0896 228.3218 0663243 242.1959 110.9859 13.75415302421957
Epoch: 2026-09-20T04:08Z
TLE epoch observation values (Epoch: 2026-09-20T04:08:25.395Z)
Latitude
-0°
Longitude
167.14548°
Altitude
1,180.508 km
Speed
7.165 km/s
True Right ascension
15h 13m 17s
True Declination
0° 00' 00"
Sunlit
Object was in daylight at epoch
Visualization orbit readout
Latitude
Unknown
Longitude
Unknown
Altitude
Unknown
Speed
Unknown
Apparent Right ascension
Unknown
Apparent Declination
Unknown
Sunlit
N/A
Visualization observer readout
Local Sidereal Time
02:37:24
Azimuth
Unknown
Elevation
Unknown
Doppler factor
Unknown
Orbital elements
Apogee altitude
1,472.383 km
Perigee altitude
495.794 km
Semi-major axis
7,362.225 km
Eccentricity
0.06632
Inclination
29.0896°
RAAN
228.3218°
Arg. of periapsis
242.1959°
True anomaly
117.86066°
Mean anomaly
110.9859°
Eccentric anomaly
114.44535°
Mean motion
3.43581 °/min
Orbital period
104.78 mins
BSTAR
0.00012891
Loading maneuver chart data...
Computing Atmospheric mass density...
Loading historical data...
Loading historical data...
Loading historical data...
Loading historical data...
Loading historical data...
Loading historical data...
Loading historical data...

Documentation

Showing up to 5 results
|